Location: ??????????
(54.8537°N, 38.8755°E)
Time: 01:04:16
(UTC+00:00)

Transit 4A - Pass Details

Date: 22 September 2024
Orbit: 865 x 977 km, 66.8° (Epoch: 09 October)

Event Time Altitude Azimuth Distance (km) Brightness Sun altitude
Exits shadow 02:26:08 - 285° (WNW) 2,979 10.0 -7.2°
Reaches altitude 10° 02:27:22 10° 291° (WNW) 2,593 9.7 -7.0°
Maximum altitude 02:32:32 28° 350° (N) 1,654 9.2 -6.3°
Drops below altitude 10° 02:37:49 10° 48° (NE) 2,665 11.3 -5.5°
Sets 02:40:47 0° 60° (ENE) 3,629 12.5 -5.1°
